[[{"header":{"parameterUnit":"m.s-1","parameterCategory":1,"la1":30.2991,"la2":30.254,"lo1":-89.0895,"lo2":-89.0444,"dy":0.0017,"dx":0.0017,"nx":28,"ny":28,"refTime":"2025-04-30T09:00:00:Z","depth":0,"parameterNumber":2,"parameterNumberName":"U-component_of_WINDS"},"data":[0,0,0,0,0,0,0,0,0,0,0,0,0,0,0,0,0,0,0,0,0,0,0,0,0,0,0,0,0,0,0,0,0,0,0,0,0,0,0,0,0,0,0,0,0,0,0,0,0,0,0,0,0,0,0,0,0,0,-3.3935,-3.3935,0,-3.3961,-3.3961,-3.3962,-3.3933,-3.3932,-3.393,-3.3929,-3.3955,-3.3957,-3.3958,0,0,0,0,0,0,0,0,0,0,0,0,0,-3.3858,-3.3859,-3.3935,-3.3935,-3.3935,-3.3961,-3.3961,-3.3962,-3.3933,-3.3932,-3.393,-3.3929,-3.3954,-3.3956,-3.3958,0,0,0,0,0,0,0,0,0,0,0,0,0,-3.3888,-3.386,-3.3935,-3.3924,-3.3923,-3.3961,-3.3961,-3.3962,-3.3933,-3.3931,-3.393,-3.3928,-3.3954,-3.3956,-3.3959,-3.4007,0,0,-3.3967,-3.3968,0,0,0,0,0,0,0,0,-3.3887,-3.3891,-3.3925,-3.3925,-3.3924,-3.3942,-3.3944,-3.3977,-3.3934,-3.3929,-3.3929,-3.3927,-3.3952,-3.3954,-3.3963,-3.4009,-3.401,-3.3967,-3.3968,-3.3969,-3.397,0,0,0,0,0,0,0,-3.3885,-3.389,-3.3945,-3.3926,-3.3925,-3.3918,-3.392,-3.395,-3.3949,-3.393,-3.3928,-3.3931,-3.3951,-3.3961,-3.3963,-3.401,-3.3967,-3.3969,-3.3971,-3.3971,-3.4097,-3.4098,0,0,0,0,0,0,-3.3884,-3.3888,-3.3944,-3.3946,-3.3901,-3.392,-3.3923,-3.3938,-3.3949,-3.3949,-3.3933,-3.393,-3.3957,-3.396,-3.3964,-3.4021,-3.3969,-3.3972,-3.3973,-3.4095,-3.4097,-3.4099,0,0,0,0,0,0,-3.3882,-3.3889,-3.3943,-3.3917,-3.3923,-3.3923,-3.394,-3.3939,-3.3948,-3.3951,-3.3951,-3.3942,-3.3956,-3.3961,-3.3997,-3.4021,-3.3973,-3.3975,-3.4093,-3.4095,-3.4098,-3.4136,0,0,0,0,0,0,-3.388,-3.3889,-3.3908,-3.3917,-3.3924,-3.3976,-3.3942,-3.3941,-3.3953,-3.395,-3.396,-3.396,-3.3955,-3.3993,-3.3999,-3.4024,-3.3977,-3.409,-3.4094,-3.4097,-3.4132,-3.4139,-3.4145,0,0,0,0,0,-3.3878,-3.3917,-3.3909,-3.3915,-3.3948,-3.3977,-3.3981,-3.3974,-3.3955,-3.3974,-3.3976,-3.396,-3.4018,-3.3997,-3.4004,-3.403,-3.4089,-3.4093,-3.4097,-3.4129,-3.4138,-3.4145,0,0,0,0,0,0,-3.3909,-3.3918,-3.3909,-3.3952,-3.3964,-3.3972,-3.3995,-3.3984,-3.4001,-3.3997,-3.3988,-3.399,-3.4029,-3.4033,-3.401,-3.4077,-3.405,-3.4056,-3.4073,-3.4081,-3.4087,-3.4085,-3.3979,0,0,0,0,0,-3.3922,-3.3945,-3.3951,-3.3989,-3.3996,-3.3995,-3.4007,-3.4001,-3.4013,-3.4018,-3.4022,-3.4034,-3.4055,-3.4068,-3.4088,-3.4134,-3.4135,-3.4155,-3.4161,-3.4167,-3.4171,-3.4195,-3.4203,-3.4112,-3.4112,-3.4112,0,0,-3.3947,-3.3954,-3.397,-3.3996,-3.4004,-3.4028,-3.3999,-3.4026,-3.4043,-3.4022,-3.4056,-3.406,-3.4072,-3.4113,-3.4132,-3.4118,-3.4197,-3.4172,-3.4176,-3.4177,-3.42,-3.4208,-3.4216,-3.4115,-3.4114,-3.4114,0,0,-3.4004,-3.4013,-3.4045,-3.4054,-3.4068,-3.4067,-3.4075,-3.4085,-3.4087,-3.4122,-3.4106,-3.4126,-3.4163,-3.4172,-3.4181,-3.4244,-3.4229,-3.425,-3.4284,-3.4307,-3.4314,-3.4321,-3.4341,-3.4349,-3.4255,-3.4255,-3.4255,0,-3.4033,-3.4069,-3.4063,-3.4091,-3.4102,-3.4085,-3.4117,-3.4126,-3.4145,-3.4153,-3.4139,-3.4184,-3.4191,-3.4233,-3.4249,-3.4258,-3.4265,-3.4248,-3.4314,-3.432,-3.4326,-3.4345,-3.4353,-3.4258,-3.4257,-3.4257,-3.4257,0,-3.4104,-3.4129,-3.4153,-3.4172,-3.4187,-3.4217,-3.4215,-3.423,-3.4224,-3.4224,-3.4259,-3.4268,-3.4288,-3.4298,-3.4292,-3.434,-3.4331,-3.4316,-3.4288,-3.4337,-3.4355,-3.4363,-3.4261,-3.426,-3.4259,-3.4259,0,0,-3.418,-3.4196,-3.4205,-3.4213,-3.4228,-3.4247,-3.4276,-3.4296,-3.4309,-3.4324,-3.4347,-3.4379,-3.4364,-3.4375,-3.437,-3.439,-3.4438,-3.4372,-3.4372,-3.4382,-3.449,-3.45,-3.4509,-3.4429,-3.4431,-3.4432,-3.4488,0,-3.4237,-3.4287,-3.4283,-3.433,-3.4353,-3.4337,-3.4363,-3.4374,-3.4376,-3.4395,-3.4397,-3.4419,-3.4399,-3.4405,-3.4425,-3.4428,-3.4459,-3.4424,-3.4449,-3.445,-3.4445,-3.4519,-3.453,-3.4582,-3.4495,-3.4496,-3.4497,0,-3.4309,-3.4326,-3.4376,-3.4387,-3.4396,-3.4419,-3.4437,-3.4456,-3.4469,-3.4468,-3.4481,-3.4472,-3.4501,-3.4475,-3.4513,-3.449,-3.45,-3.4503,-3.4505,-3.4506,-3.4475,-3.4519,-3.4599,-3.4606,-3.4509,-3.4508,-3.4507,0,-3.4358,-3.4393,-3.4428,-3.4436,-3.4449,-3.4465,-3.4472,-3.4483,-3.4495,-3.4512,-3.4519,-3.4539,-3.4549,-3.4564,-3.456,-3.4542,-3.46,-3.4573,-3.4599,-3.4599,-3.461,-3.4609,-3.4691,-3.4621,-3.4621,-3.4621,-3.462,0,-3.442,-3.4451,-3.445,-3.4471,-3.4505,-3.45,-3.4533,-3.4537,-3.4547,-3.4568,-3.4557,-3.4577,-3.4572,-3.4591,-3.4589,-3.4621,-3.4626,-3.4626,-3.4624,-3.4626,-3.4626,-3.4631,-3.4627,-3.4623,-3.4622,-3.4622,-3.4622,0,-3.448,-3.448,-3.4516,-3.4527,-3.453,-3.4554,-3.4563,-3.4582,-3.4584,-3.4611,-3.4617,-3.4619,-3.4641,-3.464,-3.4665,-3.4664,-3.4702,-3.4698,-3.4698,-3.4696,-3.4722,-3.4719,-3.4808,-3.4819,-3.4744,-3.4744,-3.4745,0,-3.4519,-3.4542,-3.4555,-3.4569,-3.4576,-3.4598,-3.4611,-3.4607,-3.4621,-3.4637,-3.4654,-3.4676,-3.4693,-3.473,-3.4733,-3.4752,-3.4747,-3.4777,-3.4749,-3.475,-3.4745,-3.4743,-3.4745,-3.4781,-3.4782,-3.4783,-3.4784,0,-3.4587,-3.4587,-3.4606,-3.4626,-3.4641,-3.4656,-3.467,-3.4682,-3.4679,-3.4696,-3.4719,-3.4732,-3.4758,-3.4779,-3.4798,-3.4804,-3.4793,-3.4793,-3.4799,-3.48,-3.4798,-3.4798,-3.4711,-3.479,-3.4789,-3.4789,-3.4788,-3.4788,-3.4637,-3.4656,-3.4669,-3.469,-3.4701,-3.4714,-3.4732,-3.4736,-3.4756,-3.4777,-3.4774,-3.4799,-3.4811,-3.4835,-3.4843,-3.4862,-3.4851,-3.4861,-3.4864,-3.4866,-3.4868,-3.4797,-3.4866,-3.4866,-3.4865,-3.4865,-3.4865,0,-3.4704,-3.4711,-3.4731,-3.4751,-3.4768,-3.4758,-3.4772,-3.4787,-3.481,-3.4822,-3.4839,-3.4865,-3.4886,-3.4891,-3.4911,-3.4925,-3.4921,-3.4931,-3.4928,-3.493,-3.4877,-3.4869,-3.4934,-3.4934,-3.4934,-3.4934,-3.4934,-3.4934,-3.474,-3.4773,-3.4773,-3.4811,-3.4818,-3.4843,-3.4852,-3.4864,-3.4873,-3.4903,-3.492,-3.4924,-3.4933,-3.4954,-3.4972,-3.4973,-3.498,-3.4991,-3.499,-3.494,-3.4934,-3.4927,-3.4919,-3.4993,-3.4993,-3.5041,-3.5041,-3.5041]},{"header":{"parameterUnit":"m.s-1","parameterCategory":1,"la1":30.2991,"la2":30.254,"lo1":-89.0895,"lo2":-89.0444,"dy":0.0017,"dx":0.0017,"nx":28,"ny":28,"refTime":"2025-04-30T09:00:00:Z","depth":0,"parameterNumber":3,"parameterNumberName":"V-component_of_WINDS"},"data":[0,0,0,0,0,0,0,0,0,0,0,0,0,0,0,0,0,0,0,0,0,0,0,0,0,0,0,0,0,0,0,0,0,0,0,0,0,0,0,0,0,0,0,0,0,0,0,0,0,0,0,0,0,0,0,0,0,0,4.8497,4.8497,0,4.8548,4.8548,4.8549,4.8508,4.8506,4.8504,4.8503,4.8551,4.8554,4.8556,0,0,0,0,0,0,0,0,0,0,0,0,0,4.836,4.8363,4.8497,4.8497,4.8498,4.8548,4.8548,4.8549,4.8508,4.8506,4.8504,4.8502,4.855,4.8553,4.8557,0,0,0,0,0,0,0,0,0,0,0,0,0,4.8416,4.8364,4.8497,4.8484,4.8483,4.8548,4.8548,4.8549,4.8508,4.8506,4.8503,4.8501,4.8549,4.8553,4.8557,4.8636,0,0,4.857,4.8572,0,0,0,0,0,0,0,0,4.8413,4.8421,4.8485,4.8485,4.8484,4.8519,4.8518,4.8578,4.8509,4.8499,4.8503,4.8499,4.8542,4.8547,4.8562,4.8638,4.864,4.8571,4.8573,4.8575,4.8577,0,0,0,0,0,0,0,4.8409,4.8419,4.8517,4.8486,4.8485,4.8474,4.8479,4.8529,4.8534,4.8499,4.8496,4.8503,4.8541,4.8558,4.8563,4.8641,4.8571,4.8575,4.8577,4.8579,4.8785,4.8788,0,0,0,0,0,0,4.8407,4.8416,4.8515,4.8518,4.8441,4.8479,4.8484,4.851,4.8533,4.8535,4.8505,4.8501,4.8552,4.8558,4.8564,4.8659,4.8575,4.8579,4.8582,4.8782,4.8786,4.8789,0,0,0,0,0,0,4.8404,4.8416,4.8513,4.8466,4.8478,4.8484,4.8513,4.8513,4.8529,4.8538,4.8538,4.8522,4.855,4.8558,4.8619,4.866,4.8581,4.8585,4.8779,4.8783,4.8787,4.8848,0,0,0,0,0,0,4.8401,4.8416,4.8446,4.8467,4.848,4.8568,4.8516,4.8515,4.8537,4.8532,4.8553,4.8554,4.8548,4.8613,4.8623,4.8664,4.8589,4.8775,4.8781,4.8786,4.8842,4.8854,4.8863,0,0,0,0,0,4.8396,4.846,4.8448,4.846,4.8519,4.8571,4.8578,4.8571,4.8541,4.8571,4.8577,4.8554,4.8653,4.8619,4.8631,4.8674,4.8773,4.8779,4.8785,4.8837,4.8851,4.8863,0,0,0,0,0,0,4.8442,4.8463,4.845,4.8523,4.8546,4.8564,4.8602,4.8586,4.8616,4.861,4.8598,4.8603,4.8668,4.8676,4.8638,4.8751,4.8708,4.8717,4.8743,4.8757,4.8767,4.8764,4.8592,0,0,0,0,0,4.8461,4.8503,4.8518,4.8581,4.8593,4.8596,4.8618,4.8611,4.8633,4.8642,4.8652,4.8673,4.871,4.8733,4.8767,4.8843,4.8847,4.8878,4.8889,4.8898,4.8906,4.8947,4.8961,4.881,4.881,4.881,0,0,4.8501,4.8517,4.8543,4.8591,4.8607,4.865,4.8604,4.865,4.8681,4.8648,4.8707,4.8715,4.8738,4.8807,4.8838,4.8817,4.8948,4.8906,4.8913,4.8916,4.8955,4.8969,4.8982,4.8814,4.8814,4.8813,0,0,4.8594,4.8611,4.8666,4.8684,4.871,4.8712,4.8725,4.8746,4.8751,4.881,4.8786,4.8822,4.8884,4.8902,4.8919,4.902,4.9,4.9031,4.9087,4.9127,4.9139,4.915,4.9186,4.9199,4.9039,4.9039,4.904,0,4.8639,4.8703,4.8696,4.8744,4.8766,4.874,4.8795,4.8812,4.8848,4.8863,4.8838,4.8917,4.893,4.9003,4.9028,4.9043,4.9057,4.9029,4.9138,4.9149,4.9158,4.9193,4.9207,4.9043,4.9043,4.9042,4.9042,0,4.8758,4.8802,4.8843,4.888,4.8906,4.8958,4.8957,4.8984,4.8975,4.8978,4.9039,4.9054,4.9091,4.9108,4.9098,4.918,4.9166,4.914,4.9096,4.9177,4.9209,4.9222,4.9048,4.9047,4.9046,4.9045,0,0,4.8881,4.8915,4.893,4.8947,4.8974,4.9008,4.9058,4.9096,4.9119,4.9144,4.9186,4.924,4.9217,4.9236,4.9228,4.9264,4.9344,4.9234,4.9234,4.9254,4.9435,4.9454,4.947,4.933,4.9333,4.9335,4.9433,0,4.8977,4.9066,4.9061,4.9144,4.9185,4.9161,4.9205,4.9226,4.9231,4.9265,4.927,4.9309,4.9275,4.9287,4.9321,4.9327,4.938,4.9319,4.9368,4.937,4.9364,4.9487,4.9507,4.9599,4.9445,4.9448,4.9449,0,4.91,4.9131,4.9219,4.9242,4.9259,4.9298,4.9333,4.9366,4.9389,4.939,4.9413,4.9399,4.9449,4.9404,4.9472,4.9432,4.9451,4.9457,4.946,4.9465,4.9415,4.9495,4.9628,4.9642,4.9469,4.9467,4.9466,0,4.9182,4.9246,4.9308,4.9323,4.935,4.9378,4.9391,4.9412,4.9435,4.9464,4.9479,4.9513,4.9532,4.9558,4.9554,4.9522,4.9624,4.9578,4.9626,4.9626,4.9648,4.9647,4.9788,4.966,4.966,4.966,4.966,0,4.9289,4.9344,4.9345,4.9383,4.9444,4.9437,4.9497,4.9505,4.9524,4.9563,4.9543,4.9579,4.9571,4.9607,4.9603,4.9661,4.9669,4.9671,4.9669,4.9673,4.9673,4.9686,4.9679,4.9664,4.9663,4.9662,4.9662,0,4.9392,4.9395,4.946,4.9481,4.9488,4.9532,4.9549,4.9584,4.9588,4.9636,4.9647,4.9652,4.9693,4.9692,4.9737,4.9735,4.9806,4.9797,4.9799,4.9797,4.9845,4.9841,4.9999,5.0019,4.9878,4.988,4.9881,0,4.9461,4.9503,4.9529,4.9554,4.9569,4.9609,4.9633,4.9628,4.9653,4.9683,4.9715,4.9754,4.9786,4.9852,4.9859,4.9894,4.9886,4.9939,4.9891,4.9893,4.9887,4.9885,4.9889,4.9948,4.995,4.9951,4.9952,0,4.9582,4.9582,4.9618,4.9655,4.9685,4.9714,4.974,4.9761,4.9758,4.9788,4.983,4.9855,4.9903,4.9942,4.9976,4.9987,4.9969,4.9967,4.998,4.9984,4.9984,4.9986,4.9825,4.9964,4.9962,4.9962,4.9961,4.996,4.967,4.9707,4.9731,4.9772,4.9792,4.9817,4.9852,4.986,4.9896,4.9936,4.993,4.9977,4.9999,5.0043,5.0058,5.0094,5.0075,5.0093,5.0098,5.0103,5.0109,4.9978,5.01,5.0099,5.0099,5.0099,5.0099,0,4.9791,4.9806,4.9844,4.9883,4.9915,4.9897,4.9925,4.9953,4.9995,5.0018,5.005,5.0099,5.0137,5.0147,5.0184,5.0211,5.0204,5.0221,5.0219,5.0222,5.0123,5.0109,5.0226,5.0226,5.0226,5.0226,5.0226,5.0226,4.9858,4.992,4.9922,4.9993,5.0007,5.0055,5.0072,5.0095,5.0113,5.0169,5.0202,5.0209,5.0226,5.0264,5.0298,5.03,5.0315,5.0335,5.0334,5.0242,5.0229,5.0217,5.0203,5.0338,5.0338,5.0429,5.043,5.0431]}]]